Wind_Speed
52 51 50 47 45 42 39 40 40 38 37 36 36 29 31 43 50 37 36 35 32 30 28 25 23 26 25 26 26 27 28 27 26 24 23 20 19 18 16 14 14 15 14
58 56 55 54 50 47 44 42 42 43 39 39 35 36 36 33 36 41 39 37 35 33 30 28 26 25 24 25 27 28 30 30 29 28 26 25 23 22 20 17 16 16 17
65 62 61 59 57 55 50 48 48 47 48 41 38 36 34 32 41 42 36 41 39 37 33 32 29 28 28 28 27 29 31 31 31 31 30 29 27 26 26 22 23 24 22
69 68 66 65 63 61 58 55 52 50 47 50 43 40 35 33 33 38 39 36 38 37 36 34 34 34 32 31 31 31 31 30 32 32 34 31 30 30 31 30 30 29 31
71 71 70 69 68 67 65 61 57 54 52 48 46 42 40 38 37 39 38 39 36 42 41 38 38 35 36 39 38 35 32 34 34 34 36 32 30 38 36 34 33 33 34
77 76 75 73 71 71 70 67 63 59 55 53 50 45 42 41 42 42 41 38 40 43 44 43 40 37 37 38 39 42 43 41 40 34 32 33 37 41 40 37 38 36 37
73 77 81 79 77 74 73 72 69 64 60 57 54 50 49 45 45 44 42 43 43 41 43 46 41 38 36 38 39 38 40 39 37 41 42 39 38 35 35 34 37 37 38
67 72 78 82 82 80 76 74 72 69 64 61 57 55 54 50 49 45 45 43 43 47 50 45 44 44 39 37 37 33 35 37 39 42 43 40 33 34 32 31 30 34 35
63 68 72 79 82 85 83 78 74 72 68 64 60 59 56 55 51 46 46 47 45 43 51 47 55 48 44 45 40 38 33 35 34 35 35 36 37 33 30 31 33 33 33
53 65 72 74 79 82 87 84 78 73 71 67 64 61 60 57 49 51 55 49 48 50 39 42 53 47 46 42 43 43 43 36 33 32 30 30 32 32 33 33 34 29 28
45 46 56 74 78 79 84 87 83 77 72 69 66 64 62 58 59 54 51 36 30 57 49 51 39 50 51 43 48 51 43 41 40 35 32 33 35 37 38 38 38 34 33
46 46 45 56 67 79 80 84 85 80 74 70 67 66 62 60 59 55 51 49 50 43 50 52 33 35 45 51 50 49 59 40 37 40 38 36 38 40 39 42 40 40 38
25 26 26 37 42 61 76 79 79 83 75 70 68 67 61 58 55 53 50 48 46 44 47 45 37 36 35 28 36 30 37 36 37 33 36 30 47 42 41 40 42 45 44
14 19 21 23 21 28 59 65 73 75 78 70 49 65 60 55 52 50 47 46 47 45 47 42 40 40 44 45 43 36 29 31 39 34 40 45 49 48 48 48 48 48 48
12 9 10 23 19 20 40 53 60 64 67 52 66 56 56 54 50 46 46 47 46 47 49 49 46 42 40 38 39 42 45 46 43 39 42 47 48 50 51 53 52 51 53
9 4 5 4 13 21 27 34 45 52 56 61 58 58 51 46 43 40 39 39 41 41 43 44 43 41 43 43 42 45 47 47 47 46 47 48 51 54 55 55 55 55 55
9 4 3 6 14 13 31 32 42 42 42 52 50 52 44 40 37 37 39 40 39 41 44 47 47 48 52 47 48 49 52 54 53 52 51 52 53 55 56 58 60 58 59
12 9 4 7 8 16 21 37 21 21 28 31 43 40 35 32 33 37 40 42 43 45 46 47 49 50 50 51 53 54 55 57 58 59 59 58 58 59 59 60 62 63 63
10 10 9 7 4 11 15 22 25 20 21 23 27 27 30 30 38 43 47 51 54 57 56 54 54 58 59 58 58 62 62 60 60 62 63 64 66 66 67 68 68 70 71
13 12 12 11 8 2 11 19 21 21 23 24 25 26 26 27 28 29 29 37 43 46 51 53 52 51 55 56 57 54 58 62 64 65 66 67 66 68 69 70 72 73 74
18 17 17 17 22 12 9 17 20 22 27 28 26 23 24 23 26 30 35 37 41 47 52 54 57 59 58 57 59 58 57 57 57 57 60 60 61 62 65 66 68 72 76
13 15 17 16 21 25 19 14 15 16 19 21 26 25 21 22 21 24 30 38 45 51 55 61 63 65 66 66 64 64 62 57 57 55 56 57 56 55 55 58 60 62 64
24 19 16 14 16 22 25 23 18 13 11 11 13 15 15 18 19 21 17 13 13 19 27 35 47 59 64 64 64 63 61 57 50 51 51 51 52 55 59 60 62 66 70
33 32 28 23 19 17 16 18 18 16 11 6 4 9 12 14 17 13 15 10 8 7 8 7 11 16 22 29 34 39 43 47 51 54 54 54 55 58 62 69 71 68 72
31 31 30 29 28 24 19 13 10 9 8 5 5 6 5 7 9 14 13 11 8 6 5 5 6 9 11 12 15 18 20 22 26 32 39 43 44 45 47 46 47 51 53
25 26 26 27 27 28 27 25 22 18 15 15 15 13 10 11 13 12 11 10 10 12 9 9 12 13 12 10 8 8 8 9 10 13 15 18 20 22 26 30 35 39 42
Wind_Direction
239 242 246 246 244 242 239 242 248 233 232 230 224 229 235 227 237 224 230 225 224 224 228 233 236 240 241 242 240 239 240 242 247 250 256 262 270 273 272 276 282 286 286
238 238 240 244 243 244 242 241 244 248 235 234 227 232 242 243 205 220 222 223 218 223 227 232 237 245 247 245 243 240 242 244 247 251 256 260 264 270 271 274 280 286 287
240 238 238 239 242 241 240 239 241 244 249 236 237 238 243 245 230 229 229 225 225 226 228 231 235 243 248 251 251 249 248 246 248 249 252 257 263 266 266 264 266 265 273
240 240 237 236 238 240 240 240 240 242 249 250 234 234 243 243 235 231 233 228 224 233 233 236 239 240 244 250 252 254 250 250 248 249 249 253 258 262 263 264 268 269 273
240 240 239 237 235 237 238 239 238 240 241 249 247 233 236 244 237 240 238 239 249 236 243 241 243 245 250 253 251 249 249 252 251 251 252 249 251 258 256 261 263 269 276
239 239 239 237 235 234 236 237 237 237 238 239 246 244 241 245 245 243 241 238 245 231 248 251 246 244 247 253 252 252 254 256 250 249 243 244 254 255 263 264 266 266 270
238 237 237 237 236 233 233 234 235 235 235 236 238 240 240 244 246 246 246 245 243 241 247 250 245 245 244 242 247 253 254 251 256 258 253 248 263 261 263 264 268 272 273
244 239 235 235 234 235 231 231 233 234 233 233 234 237 240 243 246 247 247 247 245 252 253 249 249 242 239 247 244 251 244 247 253 251 253 253 250 254 266 268 270 272 276
250 248 241 235 234 232 233 230 229 231 232 231 232 235 238 242 246 248 250 249 251 250 254 254 245 243 245 243 250 243 234 231 237 244 254 251 247 255 257 262 267 273 279
251 250 246 242 234 232 230 231 229 227 230 230 229 233 235 240 243 245 246 242 245 245 259 244 254 241 236 234 248 251 242 240 246 248 249 251 258 251 256 261 263 271 267
260 264 251 245 239 233 230 228 228 227 226 229 230 231 233 238 240 241 246 249 248 247 255 248 250 245 229 241 242 242 240 241 243 251 257 258 257 252 253 261 262 263 264
263 264 262 245 242 233 229 228 226 226 225 225 228 231 234 235 238 245 250 255 263 258 249 255 266 250 236 240 253 246 251 238 247 243 250 258 262 258 262 261 263 261 264
256 240 245 244 249 235 226 226 225 225 225 225 225 230 232 235 238 245 252 257 261 262 266 266 257 251 254 247 236 243 245 233 245 251 252 253 260 264 262 265 266 268 268
270 273 243 222 241 237 218 219 222 224 223 224 225 228 230 233 237 243 248 254 256 257 263 266 267 268 268 263 255 255 244 239 243 247 256 259 258 260 264 265 268 268 270
331 286 240 227 225 201 204 207 214 220 215 214 217 221 224 227 235 242 247 251 257 257 259 262 263 264 259 262 265 264 258 259 258 261 260 259 256 258 263 264 265 266 268
35 103 165 199 167 177 184 184 200 204 214 221 220 225 232 231 235 240 245 246 254 256 256 259 262 262 265 264 264 262 263 262 262 262 261 263 264 265 264 264 266 268 267
80 90 145 161 182 158 180 190 188 187 207 215 218 222 225 228 234 239 239 245 253 256 258 258 258 261 263 265 265 267 266 266 266 266 265 265 266 266 266 267 268 269 270
91 94 68 125 152 183 199 209 221 200 185 191 204 214 221 231 235 239 245 251 255 253 254 258 261 261 263 266 267 266 267 269 270 268 268 268 267 268 269 270 269 269 270
80 92 99 119 176 218 204 201 216 207 196 198 214 219 225 235 243 251 257 262 263 261 259 261 259 261 262 263 265 267 266 265 265 267 269 268 268 269 268 267 268 268 270
97 94 83 70 56 126 173 184 201 205 204 195 198 204 209 220 229 239 256 261 264 264 262 263 261 259 260 260 262 264 270 269 268 268 267 266 265 265 266 266 267 268 268
64 70 86 83 65 67 149 158 169 182 186 189 199 214 222 244 256 263 266 264 263 262 262 262 260 260 261 261 261 260 263 264 265 267 272 274 275 276 274 273 273 273 271
52 63 69 73 67 67 94 134 178 198 211 218 219 229 237 243 246 262 268 271 270 264 258 254 254 256 258 259 261 262 263 266 266 266 267 269 271 273 275 279 281 282 281
67 67 71 81 81 77 83 94 101 116 138 161 186 203 211 227 256 264 259 297 314 279 267 261 257 256 256 260 261 264 266 269 273 272 272 273 277 277 277 279 280 281 280
71 75 78 80 79 83 84 90 91 90 96 112 176 213 234 256 253 253 270 281 318 2 10 327 290 277 273 273 273 272 272 271 270 270 272 276 279 278 280 281 283 285 282
64 64 64 67 73 78 83 82 88 111 120 125 154 180 204 226 239 253 251 258 266 317 290 356 320 304 289 289 286 285 283 280 276 274 274 277 282 288 287 284 285 289 292
55 57 60 62 63 66 71 77 81 85 87 93 94 95 106 86 81 78 70 61 66 72 69 63 64 56 49 35 16 359 338 330 319 305 301 301 306 310 316 320 320 323 325
Height
5784 5787 5790 5795 5798 5802 5805 5806 5806 5809 5811 5814 5817 5816 5820 5822 5824 5827 5831 5834 5837 5840 5843 5845 5847 5850 5851 5854 5856 5858 5860 5860 5861 5862 5863 5864 5864 5864 5862 5862 5861 5859 5858
5771 5776 5780 5783 5788 5791 5795 5799 5801 5802 5804 5807 5809 5811 5812 5812 5815 5820 5824 5828 5830 5834 5838 5841 5842 5845 5846 5848 5850 5852 5854 5854 5856 5857 5858 5858 5860 5860 5858 5858 5857 5856 5854
5755 5760 5766 5771 5775 5780 5784 5789 5792 5796 5795 5800 5804 5806 5807 5809 5811 5816 5820 5822 5825 5828 5831 5834 5836 5839 5841 5842 5844 5845 5847 5848 5850 5850 5851 5851 5853 5854 5853 5852 5852 5851 5850
5738 5743 5749 5756 5761 5766 5771 5777 5782 5787 5789 5788 5795 5798 5803 5807 5809 5811 5814 5816 5818 5822 5825 5828 5830 5831 5834 5837 5838 5840 5841 5842 5843 5844 5843 5844 5845 5846 5847 5846 5847 5846 5844
5719 5724 5730 5737 5745 5751 5757 5763 5769 5775 5779 5781 5782 5788 5793 5798 5802 5804 5807 5808 5813 5816 5819 5820 5822 5825 5827 5830 5831 5833 5834 5836 5837 5837 5837 5837 5837 5838 5838 5838 5840 5839 5838
5700 5705 5711 5718 5727 5735 5741 5748 5755 5762 5767 5772 5775 5778 5785 5790 5793 5797 5799 5803 5807 5807 5810 5813 5815 5816 5818 5821 5821 5822 5825 5826 5828 5829 5829 5830 5832 5831 5830 5830 5829 5831 5829
5679 5684 5691 5698 5707 5716 5724 5733 5740 5748 5755 5760 5765 5769 5775 5779 5783 5788 5791 5795 5798 5799 5803 5805 5807 5807 5809 5810 5813 5815 5815 5817 5819 5819 5820 5821 5822 5823 5823 5823 5821 5821 5820
5658 5664 5670 5677 5687 5696 5706 5716 5726 5734 5742 5749 5755 5759 5764 5769 5772 5779 5783 5787 5790 5794 5794 5795 5798 5799 5801 5804 5804 5805 5805 5807 5810 5810 5811 5812 5814 5815 5815 5814 5814 5813 5813
5640 5643 5649 5656 5664 5675 5686 5698 5709 5719 5728 5736 5744 5749 5754 5759 5765 5769 5774 5778 5780 5783 5783 5785 5789 5791 5793 5794 5796 5797 5798 5799 5800 5802 5804 5805 5806 5807 5807 5808 5807 5807 5807
5621 5623 5627 5634 5644 5653 5666 5679 5693 5704 5714 5724 5731 5738 5744 5749 5757 5758 5754 5762 5768 5770 5772 5772 5773 5777 5783 5786 5788 5788 5789 5792 5794 5796 5798 5799 5799 5799 5800 5800 5800 5799 5800
5607 5606 5606 5611 5621 5634 5645 5659 5674 5688 5700 5710 5719 5726 5733 5739 5740 5740 5742 5750 5754 5759 5762 5763 5766 5768 5774 5777 5777 5779 5776 5782 5786 5787 5789 5791 5791 5791 5791 5792 5791 5791 5791
5592 5592 5589 5592 5598 5611 5627 5641 5657 5672 5686 5697 5707 5714 5721 5726 5731 5733 5738 5741 5744 5747 5749 5752 5757 5761 5764 5768 5764 5770 5772 5775 5775 5779 5782 5783 5783 5785 5783 5784 5783 5782 5782
5577 5576 5577 5580 5583 5589 5608 5625 5641 5656 5672 5685 5695 5702 5710 5716 5721 5724 5729 5733 5737 5740 5741 5743 5749 5751 5752 5756 5759 5761 5762 5763 5768 5767 5771 5772 5774 5775 5775 5773 5774 5774 5773
5575 5573 5573 5573 5576 5577 5591 5610 5628 5643 5658 5673 5687 5692 5698 5705 5712 5717 5721 5725 5728 5732 5734 5736 5739 5741 5742 5746 5750 5754 5756 5757 5758 5755 5761 5764 5763 5764 5764 5764 5764 5764 5763
5570 5566 5567 5569 5571 5573 5585 5602 5618 5634 5651 5660 5673 5681 5687 5695 5703 5709 5713 5716 5718 5723 5725 5727 5730 5733 5736 5738 5738 5741 5745 5749 5750 5750 5752 5753 5753 5752 5752 5753 5752 5752 5751
5571 5569 5570 5570 5573 5577 5588 5604 5614 5627 5639 5652 5662 5671 5679 5687 5693 5700 5705 5708 5711 5713 5717 5720 5720 5723 5725 5729 5731 5732 5734 5737 5739 5741 5742 5742 5742 5742 5741 5741 5741 5740 5739
5577 5576 5576 5576 5578 5585 5593 5605 5614 5624 5635 5644 5654 5665 5673 5679 5686 5692 5696 5699 5703 5705 5707 5710 5712 5712 5716 5718 5719 5721 5722 5724 5725 5727 5729 5730 5730 5729 5729 5730 5728 5726 5725
5582 5582 5582 5584 5588 5592 5597 5598 5607 5616 5625 5634 5649 5658 5665 5673 5679 5683 5687 5689 5692 5694 5697 5699 5701 5703 5707 5708 5708 5709 5710 5711 5711 5712 5713 5715 5715 5714 5716 5715 5713 5713 5711
5588 5587 5588 5589 5589 5592 5597 5602 5608 5616 5625 5636 5646 5654 5661 5666 5671 5675 5678 5680 5682 5684 5687 5689 5691 5692 5694 5696 5696 5695 5698 5699 5698 5697 5699 5700 5699 5699 5701 5699 5698 5699 5697
5592 5591 5592 5592 5592 5593 5595 5601 5607 5613 5623 5634 5642 5649 5655 5660 5664 5667 5669 5670 5671 5672 5672 5674 5677 5679 5681 5683 5683 5682 5681 5681 5680 5679 5681 5684 5684 5683 5683 5681 5680 5679 5677
5598 5598 5597 5597 5596 5594 5596 5602 5609 5615 5622 5629 5636 5642 5648 5653 5656 5659 5661 5660 5660 5659 5659 5660 5661 5662 5663 5665 5666 5666 5667 5667 5667 5667 5667 5668 5668 5668 5667 5666 5663 5660 5659
5602 5601 5601 5601 5600 5598 5599 5602 5608 5614 5619 5625 5631 5636 5641 5646 5649 5651 5650 5649 5645 5644 5643 5643 5644 5645 5647 5648 5649 5649 5651 5653 5656 5656 5655 5654 5653 5652 5652 5650 5647 5644 5641
5607 5606 5606 5606 5606 5605 5606 5607 5610 5614 5618 5622 5627 5631 5636 5640 5642 5643 5643 5640 5632 5625 5623 5624 5627 5630 5633 5636 5637 5638 5639 5641 5642 5643 5643 5643 5641 5639 5637 5634 5630 5626 5622
5616 5615 5613 5611 5610 5610 5611 5612 5614 5616 5619 5622 5625 5629 5632 5634 5635 5636 5635 5632 5629 5624 5620 5617 5618 5619 5621 5623 5625 5627 5628 5629 5630 5630 5630 5630 5628 5626 5623 5619 5615 5609 5604
5623 5621 5618 5617 5616 5616 5616 5617 5618 5619 5621 5623 5625 5627 5628 5630 5631 5631 5630 5628 5626 5625 5621 5620 5620 5619 5619 5619 5619 5620 5620 5619 5620 5620 5619 5617 5616 5612 5609 5603 5597 5592 5585
5629 5628 5626 5625 5623 5622 5621 5620 5621 5621 5622 5623 5624 5625 5626 5627 5626 5626 5624 5625 5624 5622 5620 5621 5620 5619 5618 5618 5618 5618 5617 5616 5615 5614 5613 5610 5607 5604 5599 5593 5587 5581 5573